Location: N�rnberg
(49.4471°N, 11.0632°E)
Time: 16:44:28
(UTC+01:00)

ARIANE 6 FM1 Upper Stage - Pass Details

Date: 16 February 2026
Orbit: 523 x 607 km, 62.0° (Epoch: 7 March)

Event Time Altitude Azimuth Distance (km) Brightness Sun altitude
Rises 18:37:07 0° 316° (NW) 2,663 6.7 -10.4°
Reaches altitude 10° 18:39:21 10° 322° (NW) 1,769 5.7 -10.7°
Maximum altitude 18:43:13 51° 39° (NE) 668 2.8 -11.4°
Enters shadow 18:46:22 15° 113° (ESE) 1,490 4.3 -11.9°
